Fairfield, IL

12:16 PM CST on December 02, 2016 (GMT -0600)
Fairfield Municipal

Weather History for KFWC - October, 2012

Change the Weather History Date:

Sunday, October 7, 2012

  Actual Average (KMVN) Record (KMVN)
Temperature  
Mean Temperature 46 °F -  
Max Temperature 53 °F 69 °F 93 °F (2007)
Min Temperature 39 °F 47 °F 30 °F (2000)
Degree Days  
Heating Degree Days 19    
Moisture  
Dew Point 34 °F    
Average Humidity 68    
Maximum Humidity 93    
Minimum Humidity 38    
Precipitation  
Precipitation 0.00 in - - ()
Sea Level Pressure  
Sea Level Pressure 30.22 in    
Wind  
Wind Speed 3 mph (NW)    
Max Wind Speed 7 mph    
Max Gust Speed 21 mph    
Visibility 10 miles    
Events      
Averages and records for this station are not official NWS values.
T = Trace of Precipitation, MM = Missing Value Source: NWS Daily Summary

Daily Weather History Graph

Daily Weather History Graph

Search for Another Location

Airport or City:

Trip Planner

Search our weather history database for the weather conditions in past years. The results will help you decide how hot, cold, wet, or windy it might be!

Date:

Astronomy

Oct. 07, 2012 Rise Set
Actual Time 6:55 AM CDT 6:26 PM CDT
Civil Twilight 6:28 AM CDT 6:53 PM CDT
Nautical Twilight 5:58 AM CDT 7:23 PM CDT
Astronomical Twilight 5:27 AM CDT 7:54 PM CDT
Moon 11:41 PM CDT (10/7) 1:29 PM CDT (10/7)
Length of Visible Light 12h 24m
Length of Day
11h 31m
Waning Gibbous, 56% of the Moon is Illuminated
Oct 7
Waning Gibbous
Oct 8
Last Quarter
Oct 15
New
Oct 21
First Quarter
Oct 29
Full

Hourly Weather History & Observations

Time (CDT) Temp. Windchill Dew Point Humidity Pressure Visibility Wind Dir Wind Speed Gust Speed Precip Events Conditions
12:15 AM 44.6 °F 40.7 °F 35.6 °F 71% 30.21 in 10.0 mi NNW 6.9 mph - N/A   Overcast
12:35 AM 44.6 °F 40.7 °F 35.6 °F 71% 30.20 in 10.0 mi NNW 6.9 mph - N/A   Overcast
12:55 AM 44.6 °F 42.2 °F 35.6 °F 71% 30.20 in 10.0 mi North 4.6 mph - N/A   Overcast
1:15 AM 44.6 °F - 35.6 °F 71% 30.21 in 10.0 mi Calm Calm - N/A   Overcast
1:35 AM 42.8 °F 41.1 °F 35.6 °F 76% 30.21 in 10.0 mi NNW 3.5 mph - N/A   Overcast
1:55 AM 42.8 °F - 35.6 °F 76% 30.22 in 10.0 mi Calm Calm - N/A   Overcast
2:15 AM 42.8 °F 41.1 °F 35.6 °F 76% 30.21 in 10.0 mi NW 3.5 mph - N/A   Overcast
2:35 AM 42.8 °F 41.1 °F 35.6 °F 76% 30.22 in 10.0 mi NW 3.5 mph - N/A   Overcast
2:55 AM 42.8 °F - 35.6 °F 76% 30.21 in 10.0 mi Calm Calm - N/A   Overcast
3:15 AM 42.8 °F 41.1 °F 35.6 °F 76% 30.21 in 10.0 mi NW 3.5 mph - N/A   Overcast
3:35 AM 42.8 °F 41.1 °F 35.6 °F 76% 30.21 in 10.0 mi NW 3.5 mph - N/A   Overcast
3:55 AM 42.8 °F - 35.6 °F 76% 30.21 in 10.0 mi Calm Calm - N/A   Overcast
4:15 AM 42.8 °F 41.1 °F 35.6 °F 76% 30.21 in 10.0 mi NNW 3.5 mph - N/A   Overcast
4:35 AM 42.8 °F 41.1 °F 35.6 °F 76% 30.21 in 10.0 mi NNW 3.5 mph - N/A   Overcast
4:55 AM 42.8 °F 41.1 °F 35.6 °F 76% 30.20 in 10.0 mi North 3.5 mph - N/A   Overcast
5:15 AM 42.8 °F 41.1 °F 35.6 °F 76% 30.21 in 10.0 mi NW 3.5 mph - N/A   Overcast
5:35 AM 42.8 °F - 35.6 °F 76% 30.21 in 10.0 mi Calm Calm - N/A   Overcast
5:55 AM 41.0 °F - 35.6 °F 81% 30.21 in 10.0 mi Calm Calm - N/A   Overcast
6:15 AM 41.0 °F - 35.6 °F 81% 30.22 in 10.0 mi Calm Calm - N/A   Overcast
6:35 AM 41.0 °F 39.0 °F 35.6 °F 81% 30.22 in 10.0 mi NW 3.5 mph - N/A   Overcast
6:55 AM 41.0 °F - 35.6 °F 81% 30.23 in 10.0 mi Calm Calm - N/A   Overcast
7:15 AM 41.0 °F - 35.6 °F 81% 30.23 in 10.0 mi Calm Calm - N/A   Mostly Cloudy
7:35 AM 41.0 °F - 35.6 °F 81% 30.24 in 10.0 mi Calm Calm - N/A   Clear
7:55 AM 39.2 °F - 35.6 °F 87% 30.24 in 10.0 mi Calm Calm - N/A   Clear
8:15 AM 41.0 °F 38.0 °F 37.4 °F 87% 30.24 in 10.0 mi WNW 4.6 mph - N/A   Clear
8:35 AM 42.8 °F 40.1 °F 37.4 °F 81% 30.25 in 10.0 mi WNW 4.6 mph - N/A   Clear
8:55 AM 42.8 °F 40.1 °F 35.6 °F 76% 30.25 in 10.0 mi NW 4.6 mph - N/A   Clear
9:15 AM 44.6 °F 43.1 °F 35.6 °F 71% 30.25 in 10.0 mi NNW 3.5 mph - N/A   Clear
9:35 AM 46.4 °F 44.3 °F 35.6 °F 66% 30.26 in 10.0 mi NNW 4.6 mph - N/A   Clear
9:55 AM 46.4 °F 45.2 °F 33.8 °F 62% 30.25 in 10.0 mi NW 3.5 mph - N/A   Clear
10:15 AM 48.2 °F - 32.0 °F 54% 30.25 in 10.0 mi NW 4.6 mph - N/A   Scattered Clouds
10:35 AM 46.4 °F 44.3 °F 30.2 °F 53% 30.25 in 10.0 mi West 4.6 mph - N/A   Scattered Clouds
10:55 AM 46.4 °F 43.5 °F 30.2 °F 53% 30.25 in 10.0 mi WNW 5.8 mph - N/A   Mostly Cloudy
11:15 AM 48.2 °F - 30.2 °F 50% 30.26 in 10.0 mi West 5.8 mph - N/A   Mostly Cloudy
11:35 AM 48.2 °F - 30.2 °F 50% 30.26 in 10.0 mi NNW 4.6 mph - N/A   Overcast
11:55 AM 48.2 °F - 30.2 °F 50% 30.26 in 10.0 mi WNW 6.9 mph - N/A   Mostly Cloudy
12:15 PM 48.2 °F - 30.2 °F 50% 30.25 in 10.0 mi NNW 4.6 mph - N/A   Mostly Cloudy
12:35 PM 50.0 °F - 30.2 °F 47% 30.25 in 10.0 mi North 3.5 mph - N/A   Mostly Cloudy
12:55 PM 51.8 °F - 30.2 °F 44% 30.24 in 10.0 mi NNE 4.6 mph - N/A   Mostly Cloudy
1:15 PM 50.0 °F - 28.4 °F 43% 30.23 in 10.0 mi West 4.6 mph - N/A   Scattered Clouds
1:35 PM 51.8 °F - 30.2 °F 44% 30.22 in 10.0 mi NW 5.8 mph - N/A   Scattered Clouds
1:55 PM 51.8 °F - 30.2 °F 44% 30.22 in 10.0 mi NW 5.8 mph - N/A   Clear
2:15 PM 53.6 °F - 30.2 °F 41% 30.21 in 10.0 mi NW 4.6 mph - N/A   Scattered Clouds
2:35 PM 51.8 °F - 28.4 °F 41% 30.20 in 10.0 mi NW 6.9 mph - N/A   Scattered Clouds
2:55 PM 53.6 °F - 30.2 °F 41% 30.20 in 10.0 mi West 5.8 mph - N/A   Scattered Clouds
3:15 PM 53.6 °F - 30.2 °F 41% 30.20 in 10.0 mi NW 5.8 mph - N/A   Scattered Clouds
3:35 PM 53.6 °F - 28.4 °F 38% 30.20 in 10.0 mi West 6.9 mph 20.7 mph N/A   Scattered Clouds
3:55 PM 53.6 °F - 30.2 °F 41% 30.19 in 10.0 mi North 6.9 mph - N/A   Mostly Cloudy
4:15 PM 53.6 °F - 28.4 °F 38% 30.18 in 10.0 mi NW 5.8 mph - N/A   Scattered Clouds
4:35 PM 53.6 °F - 28.4 °F 38% 30.18 in 10.0 mi North 4.6 mph - N/A   Clear
4:55 PM 51.8 °F - 28.4 °F 41% 30.18 in 10.0 mi WNW 4.6 mph - N/A   Clear
5:15 PM 51.8 °F - 30.2 °F 44% 30.18 in 10.0 mi North 4.6 mph - N/A   Clear
5:35 PM 51.8 °F - 30.2 °F 44% 30.19 in 10.0 mi WNW 3.5 mph - N/A   Clear
5:55 PM 50.0 °F - 32.0 °F 50% 30.19 in 10.0 mi Calm Calm - N/A   Clear
6:15 PM 48.2 °F - 33.8 °F 58% 30.19 in 10.0 mi Calm Calm - N/A   Clear
6:35 PM 46.4 °F - 35.6 °F 66% 30.19 in 10.0 mi Calm Calm - N/A   Clear
6:55 PM 44.6 °F - 37.4 °F 76% 30.19 in 10.0 mi Calm Calm - N/A   Clear
7:15 PM 42.8 °F - 37.4 °F 81% 30.20 in 10.0 mi Calm Calm - N/A   Clear
7:35 PM 42.8 °F - 37.4 °F 81% 30.20 in 10.0 mi Calm Calm - N/A   Clear
7:55 PM 42.8 °F - 39.2 °F 87% 30.20 in 10.0 mi Calm Calm - N/A   Clear
8:15 PM 41.0 °F - 37.4 °F 87% 30.21 in 10.0 mi Calm Calm - N/A   Clear
8:35 PM 41.0 °F - 37.4 °F 87% 30.21 in 10.0 mi Calm Calm - N/A   Clear
8:55 PM 39.2 °F - 37.4 °F 93% 30.22 in 10.0 mi Calm Calm - N/A   Clear
9:15 PM 39.2 °F - 37.4 °F 93% 30.21 in 10.0 mi Calm Calm - N/A   Clear
9:35 PM 39.2 °F - 37.4 °F 93% 30.22 in 10.0 mi Calm Calm - N/A   Clear
9:55 PM 39.2 °F - 37.4 °F 93% 30.21 in 10.0 mi Calm Calm - N/A   Clear
10:15 PM 39.2 °F - 37.4 °F 93% 30.21 in 10.0 mi Calm Calm - N/A   Clear
10:35 PM 39.2 °F - 35.6 °F 87% 30.22 in 10.0 mi Calm Calm - N/A   Clear
10:55 PM 39.2 °F - 37.4 °F 93% 30.22 in 10.0 mi Calm Calm - N/A   Clear
11:15 PM 39.2 °F - 37.4 °F 93% 30.21 in 10.0 mi Calm Calm - N/A   Clear
11:35 PM 39.2 °F - 37.4 °F 93% 30.21 in 10.0 mi Calm Calm - N/A   Clear
11:55 PM 39.2 °F - 37.4 °F 93% 30.20 in 10.0 mi Calm Calm - N/A   Clear